Time,TemperatureF,DewpointF,PressureIn,WindDirection,WindDirectionDegrees,WindSpeedMPH,WindSpeedGustMPH,Humidity,HourlyPrecipIn,Conditions,Clouds,dailyrainin,SoftwareType,DateUTC
2013-01-23 00:00:00,12.8,1.4,29.57,North,0,0.0,0.0,60,0.00,,,0.00,WUHU216HW,2013-01-23 05:00:00,
2013-01-23 00:02:00,12.8,1.4,29.57,North,0,0.0,0.0,60,0.00,,,0.00,WUHU216HW,2013-01-23 05:02:00,
2013-01-23 00:03:00,12.8,1.4,29.57,North,0,0.0,0.0,60,0.00,,,0.00,WUHU216HW,2013-01-23 05:03:00,
2013-01-23 00:08:00,12.8,1.4,29.57,North,0,0.0,0.0,60,0.00,,,0.00,WUHU216HW,2013-01-23 05:08:00,
2013-01-23 00:30:00,12.2,0.2,29.56,North,0,0.0,0.0,58,0.00,,,0.00,WUHU216HW,2013-01-23 05:30:00,
2013-01-23 00:35:00,12.2,0.2,29.56,North,0,0.0,0.0,58,0.00,,,0.00,WUHU216HW,2013-01-23 05:35:00,
2013-01-23 01:00:00,11.7,0.7,29.56,North,0,0.0,0.0,61,0.00,,,0.00,WUHU216HW,2013-01-23 06:00:00,
2013-01-23 01:05:00,11.7,0.7,29.56,North,0,0.0,0.0,61,0.00,,,0.00,WUHU216HW,2013-01-23 06:05:00,
2013-01-23 01:30:00,11.2,0.3,29.56,North,0,0.0,0.0,61,0.00,,,0.00,WUHU216HW,2013-01-23 06:30:00,
2013-01-23 01:35:00,11.2,0.3,29.56,North,0,0.0,0.0,61,0.00,,,0.00,WUHU216HW,2013-01-23 06:35:00,
2013-01-23 02:00:00,11.0,0.1,29.56,North,0,0.0,0.0,61,0.00,,,0.00,WUHU216HW,2013-01-23 07:00:00,
2013-01-23 02:05:00,11.0,0.1,29.56,North,0,0.0,0.0,61,0.00,,,0.00,WUHU216HW,2013-01-23 07:05:00,
2013-01-23 02:30:00,10.8,-0.8,29.57,North,0,0.0,0.0,59,0.00,,,0.00,WUHU216HW,2013-01-23 07:30:00,
2013-01-23 02:35:00,10.8,-0.8,29.57,North,0,0.0,0.0,59,0.00,,,0.00,WUHU216HW,2013-01-23 07:35:00,
2013-01-23 03:00:00,10.4,-1.1,29.57,North,0,0.0,0.0,59,0.00,,,0.00,WUHU216HW,2013-01-23 08:00:00,
2013-01-23 03:05:00,10.4,-1.1,29.57,North,0,0.0,0.0,59,0.00,,,0.00,WUHU216HW,2013-01-23 08:05:00,
2013-01-23 03:30:00,10.4,-1.9,29.57,North,0,0.0,0.0,57,0.00,,,0.00,WUHU216HW,2013-01-23 08:30:00,
2013-01-23 03:35:00,10.4,-1.9,29.57,North,0,0.0,0.0,57,0.00,,,0.00,WUHU216HW,2013-01-23 08:35:00,
2013-01-23 04:00:00,10.4,-1.4,29.57,North,0,0.0,0.0,58,0.00,,,0.00,WUHU216HW,2013-01-23 09:00:00,
2013-01-23 04:05:00,10.4,-1.4,29.57,North,0,0.0,0.0,58,0.00,,,0.00,WUHU216HW,2013-01-23 09:05:00,
2013-01-23 04:30:00,10.1,-1.4,29.57,North,0,0.0,0.0,59,0.00,,,0.00,WUHU216HW,2013-01-23 09:30:00,
2013-01-23 04:35:00,10.1,-1.4,29.57,North,0,0.0,0.0,59,0.00,,,0.00,WUHU216HW,2013-01-23 09:35:00,
2013-01-23 05:00:00,9.9,-1.3,29.58,North,0,0.0,0.0,60,0.00,,,0.00,WUHU216HW,2013-01-23 10:00:00,
2013-01-23 05:05:00,9.9,-1.3,29.58,North,0,0.0,0.0,60,0.00,,,0.00,WUHU216HW,2013-01-23 10:05:00,
2013-01-23 05:30:00,9.9,-2.4,29.59,North,0,0.0,0.0,57,0.00,,,0.00,WUHU216HW,2013-01-23 10:30:00,
2013-01-23 05:35:00,9.9,-2.4,29.59,North,0,0.0,0.0,57,0.00,,,0.00,WUHU216HW,2013-01-23 10:35:00,
2013-01-23 06:00:00,9.7,-3.7,29.60,North,0,0.0,0.0,54,0.00,,,0.00,WUHU216HW,2013-01-23 11:00:00,
2013-01-23 06:05:00,9.7,-3.7,29.60,North,0,0.0,0.0,54,0.00,,,0.00,WUHU216HW,2013-01-23 11:05:00,
2013-01-23 06:30:00,9.2,-5.0,29.61,North,0,0.0,0.0,52,0.00,,,0.00,WUHU216HW,2013-01-23 11:30:00,
2013-01-23 06:35:00,9.2,-5.0,29.61,North,0,0.0,0.0,52,0.00,,,0.00,WUHU216HW,2013-01-23 11:35:00,
2013-01-23 07:00:00,8.8,-5.4,29.61,North,0,0.0,0.0,52,0.00,,,0.00,WUHU216HW,2013-01-23 12:00:00,
2013-01-23 07:05:00,8.8,-5.4,29.61,North,0,0.0,0.0,52,0.00,,,0.00,WUHU216HW,2013-01-23 12:05:00,
2013-01-23 07:30:00,8.6,-5.6,29.62,North,0,0.0,0.0,52,0.00,,,0.00,WUHU216HW,2013-01-23 12:30:00,
2013-01-23 07:35:00,8.6,-5.6,29.62,North,0,0.0,0.0,52,0.00,,,0.00,WUHU216HW,2013-01-23 12:35:00,
2013-01-23 08:00:00,9.0,-5.2,29.62,North,0,0.0,0.0,52,0.00,,,0.00,WUHU216HW,2013-01-23 13:00:00,
2013-01-23 08:05:00,9.0,-5.2,29.62,North,0,0.0,0.0,52,0.00,,,0.00,WUHU216HW,2013-01-23 13:05:00,
2013-01-23 08:30:00,9.7,-5.7,29.63,North,0,0.0,0.0,49,0.00,,,0.00,WUHU216HW,2013-01-23 13:30:00,
2013-01-23 08:35:00,9.7,-5.7,29.63,North,0,0.0,0.0,49,0.00,,,0.00,WUHU216HW,2013-01-23 13:35:00,
2013-01-23 09:00:00,10.1,-6.2,29.63,North,0,0.0,0.0,47,0.00,,,0.00,WUHU216HW,2013-01-23 14:00:00,
2013-01-23 09:05:00,10.1,-6.2,29.63,North,0,0.0,0.0,47,0.00,,,0.00,WUHU216HW,2013-01-23 14:05:00,
2013-01-23 09:30:00,11.2,-6.2,29.63,North,0,0.0,0.0,45,0.00,,,0.00,WUHU216HW,2013-01-23 14:30:00,
2013-01-23 09:35:00,11.2,-6.2,29.63,North,0,0.0,0.0,45,0.00,,,0.00,WUHU216HW,2013-01-23 14:35:00,
2013-01-23 10:00:00,12.2,-6.7,29.63,North,0,0.0,0.0,42,0.00,,,0.00,WUHU216HW,2013-01-23 15:00:00,
2013-01-23 10:05:00,12.2,-6.7,29.63,North,0,0.0,0.0,42,0.00,,,0.00,WUHU216HW,2013-01-23 15:05:00,
2013-01-23 10:30:00,13.5,-7.0,29.63,North,0,0.0,0.0,39,0.00,,,0.00,WUHU216HW,2013-01-23 15:30:00,
2013-01-23 10:35:00,13.5,-7.0,29.63,North,0,0.0,0.0,39,0.00,,,0.00,WUHU216HW,2013-01-23 15:35:00,
2013-01-23 11:00:00,14.8,-5.8,29.61,North,0,0.0,0.0,39,0.00,,,0.00,WUHU216HW,2013-01-23 16:00:00,
2013-01-23 11:05:00,14.8,-5.8,29.61,North,0,0.0,0.0,39,0.00,,,0.00,WUHU216HW,2013-01-23 16:05:00,
2013-01-23 11:30:00,15.7,-5.7,29.61,North,0,0.0,0.0,38,0.00,,,0.00,WUHU216HW,2013-01-23 16:30:00,
2013-01-23 11:35:00,15.7,-5.7,29.61,North,0,0.0,0.0,38,0.00,,,0.00,WUHU216HW,2013-01-23 16:35:00,
2013-01-23 12:00:00,16.2,-6.8,29.59,North,0,0.0,0.0,35,0.00,,,0.00,WUHU216HW,2013-01-23 17:00:00,
2013-01-23 12:05:00,16.2,-6.8,29.59,North,0,0.0,0.0,35,0.00,,,0.00,WUHU216HW,2013-01-23 17:05:00,
2013-01-23 12:30:00,16.9,-6.2,29.58,North,0,0.0,0.0,35,0.00,,,0.00,WUHU216HW,2013-01-23 17:30:00,
2013-01-23 12:35:00,16.9,-6.2,29.58,North,0,0.0,0.0,35,0.00,,,0.00,WUHU216HW,2013-01-23 17:35:00,
2013-01-23 13:00:00,17.8,-5.4,29.56,North,0,0.0,0.0,35,0.00,,,0.00,WUHU216HW,2013-01-23 18:00:00,
2013-01-23 13:05:00,17.8,-5.4,29.56,North,0,0.0,0.0,35,0.00,,,0.00,WUHU216HW,2013-01-23 18:05:00,
2013-01-23 13:30:00,23.6,-2.7,29.56,North,0,0.0,0.0,31,0.00,,,0.00,WUHU216HW,2013-01-23 18:30:00,
2013-01-23 13:35:00,23.6,-2.7,29.56,North,0,0.0,0.0,31,0.00,,,0.00,WUHU216HW,2013-01-23 18:35:00,
2013-01-23 14:00:00,25.6,-4.1,29.56,North,0,0.0,0.0,27,0.00,,,0.00,WUHU216HW,2013-01-23 19:00:00,
2013-01-23 14:05:00,25.6,-4.1,29.56,North,0,0.0,0.0,27,0.00,,,0.00,WUHU216HW,2013-01-23 19:05:00,
2013-01-23 14:30:00,19.6,-7.6,29.57,North,0,0.0,0.0,29,0.00,,,0.00,WUHU216HW,2013-01-23 19:30:00,
2013-01-23 14:35:00,19.6,-7.6,29.57,North,0,0.0,0.0,29,0.00,,,0.00,WUHU216HW,2013-01-23 19:35:00,
2013-01-23 15:00:00,19.8,-8.3,29.58,North,0,0.0,0.0,28,0.00,,,0.00,WUHU216HW,2013-01-23 20:00:00,
2013-01-23 15:05:00,19.8,-8.3,29.58,North,0,0.0,0.0,28,0.00,,,0.00,WUHU216HW,2013-01-23 20:05:00,
2013-01-23 15:30:00,16.0,-10.7,29.58,North,0,0.0,0.0,29,0.00,,,0.00,WUHU216HW,2013-01-23 20:30:00,
2013-01-23 15:35:00,16.0,-10.7,29.58,North,0,0.0,0.0,29,0.00,,,0.00,WUHU216HW,2013-01-23 20:35:00,
2013-01-23 16:00:00,15.1,-10.7,29.58,North,0,0.0,0.0,30,0.00,,,0.00,WUHU216HW,2013-01-23 21:00:00,
2013-01-23 16:05:00,15.1,-10.7,29.58,North,0,0.0,0.0,30,0.00,,,0.00,WUHU216HW,2013-01-23 21:05:00,
2013-01-23 16:30:00,13.7,-10.2,29.59,North,0,0.0,0.0,33,0.00,,,0.00,WUHU216HW,2013-01-23 21:30:00,
2013-01-23 16:35:00,13.7,-10.2,29.59,North,0,0.0,0.0,33,0.00,,,0.00,WUHU216HW,2013-01-23 21:35:00,
2013-01-23 17:00:00,12.4,-10.2,29.60,North,0,0.0,0.0,35,0.00,,,0.00,WUHU216HW,2013-01-23 22:00:00,
2013-01-23 17:05:00,12.4,-10.2,29.60,North,0,0.0,0.0,35,0.00,,,0.00,WUHU216HW,2013-01-23 22:05:00,
2013-01-23 17:30:00,11.2,-11.4,29.61,North,0,0.0,0.0,35,0.00,,,0.00,WUHU216HW,2013-01-23 22:30:00,
2013-01-23 17:35:00,11.2,-11.4,29.61,North,0,0.0,0.0,35,0.00,,,0.00,WUHU216HW,2013-01-23 22:35:00,
2013-01-23 18:00:00,10.4,-11.5,29.62,North,0,0.0,0.0,36,0.00,,,0.00,WUHU216HW,2013-01-23 23:00:00,
2013-01-23 18:05:00,10.4,-11.5,29.62,North,0,0.0,0.0,36,0.00,,,0.00,WUHU216HW,2013-01-23 23:05:00,
2013-01-23 18:30:00,9.7,-11.5,29.63,North,0,0.0,0.0,37,0.00,,,0.00,WUHU216HW,2013-01-23 23:30:00,
2013-01-23 18:35:00,9.7,-11.5,29.63,North,0,0.0,0.0,37,0.00,,,0.00,WUHU216HW,2013-01-23 23:35:00,
2013-01-23 19:00:00,9.0,-11.6,29.63,North,0,0.0,0.0,38,0.00,,,0.00,WUHU216HW,2013-01-24 00:00:00,
2013-01-23 19:05:00,9.0,-11.6,29.63,North,0,0.0,0.0,38,0.00,,,0.00,WUHU216HW,2013-01-24 00:05:00,
2013-01-23 19:30:00,8.5,-11.0,29.63,North,0,0.0,0.0,40,0.00,,,0.00,WUHU216HW,2013-01-24 00:30:00,
2013-01-23 19:35:00,8.5,-11.0,29.63,North,0,0.0,0.0,40,0.00,,,0.00,WUHU216HW,2013-01-24 00:35:00,
2013-01-23 20:00:00,7.6,-10.9,29.63,North,0,0.0,0.0,42,0.00,,,0.00,WUHU216HW,2013-01-24 01:00:00,
2013-01-23 20:05:00,7.6,-10.9,29.63,North,0,0.0,0.0,42,0.00,,,0.00,WUHU216HW,2013-01-24 01:05:00,
2013-01-23 20:30:00,7.4,-10.6,29.63,North,0,0.0,0.0,43,0.00,,,0.00,WUHU216HW,2013-01-24 01:30:00,
2013-01-23 20:35:00,7.4,-10.6,29.63,North,0,0.0,0.0,43,0.00,,,0.00,WUHU216HW,2013-01-24 01:35:00,
2013-01-23 21:00:00,6.8,-11.1,29.63,North,0,0.0,0.0,43,0.00,,,0.00,WUHU216HW,2013-01-24 02:00:00,
2013-01-23 21:05:00,6.8,-11.1,29.63,North,0,0.0,0.0,43,0.00,,,0.00,WUHU216HW,2013-01-24 02:05:00,
2013-01-23 21:30:00,6.3,-9.7,29.63,North,0,0.0,0.0,47,0.00,,,0.00,WUHU216HW,2013-01-24 02:30:00,
2013-01-23 21:35:00,6.3,-9.7,29.63,North,0,0.0,0.0,47,0.00,,,0.00,WUHU216HW,2013-01-24 02:35:00,
2013-01-23 22:00:00,6.1,-11.2,29.63,North,0,0.0,0.0,44,0.00,,,0.00,WUHU216HW,2013-01-24 03:00:00,
2013-01-23 22:05:00,6.1,-11.2,29.63,North,0,0.0,0.0,44,0.00,,,0.00,WUHU216HW,2013-01-24 03:05:00,
2013-01-23 22:30:00,5.9,-11.0,29.63,North,0,0.0,0.0,45,0.00,,,0.00,WUHU216HW,2013-01-24 03:30:00,
2013-01-23 22:35:00,5.9,-11.0,29.63,North,0,0.0,0.0,45,0.00,,,0.00,WUHU216HW,2013-01-24 03:35:00,
2013-01-23 23:00:00,6.1,-10.8,29.63,North,0,0.0,0.0,45,0.00,,,0.00,WUHU216HW,2013-01-24 04:00:00,
2013-01-23 23:05:00,6.1,-10.8,29.63,North,0,0.0,0.0,45,0.00,,,0.00,WUHU216HW,2013-01-24 04:05:00,
2013-01-23 23:10:00,6.1,-10.8,29.63,North,0,0.0,0.0,45,0.00,,,0.00,WUHU216HW,2013-01-24 04:10:00,
2013-01-23 23:30:00,6.1,-10.8,29.62,North,0,0.0,0.0,45,0.00,,,0.00,WUHU216HW,2013-01-24 04:30:00,
2013-01-23 23:35:00,6.1,-10.8,29.62,North,0,0.0,0.0,45,0.00,,,0.00,WUHU216HW,2013-01-24 04:35:00,